SV1EML-13 Weather Reports


time (UTC)temp
F
wind
direction
speed
knots
gust
knots
rain 1hr
in
rain 24hr
in
rain mn
in
humidity
%
barometer
mb
20260506230805 66 0.0 0.0 0.00 0.00 0.00 10 1017.2
20260506222306 66 0.0 0.0 0.00 0.00 0.00 10 1017.3
20260506205306 68 0.0 0.0 0.00 0.00 0.00 10 1017.7
20260506200805 68 0.0 0.0 0.00 0.00 0.00 87 1017.6
20260506192306 69 0.0 0.0 0.00 0.00 0.00 83 1017.1
20260506183805 70 0.0 0.0 0.00 0.00 0.00 65 1016.6
20260506175306 70 0.0 0.0 0.00 0.00 0.00 57 1016.2
20260506170806 71 0.0 0.0 0.00 0.00 0.00 59 1016.0
20260506162307 72 0.0 0.0 0.00 0.00 0.00 59 1016.1
20260506153805 73 0.0 0.0 0.00 0.00 0.00 58 1016.1
20260506145306 73 0.0 0.0 0.00 0.00 0.00 55 1016.2
20260506140805 73 0.0 0.0 0.00 0.00 0.00 65 1016.3
20260506132307 73 0.0 0.0 0.00 0.00 0.00 78 1016.5
20260506123805 74 0.0 0.0 0.00 0.00 0.00 70 1016.6
20260506115307 75 0.0 0.0 0.00 0.00 0.00 81 1016.8
20260506110805 74 0.0 0.0 0.00 0.00 0.00 86 1017.0
20260506102306 75 0.0 0.0 0.00 0.00 0.00 67 1017.0
20260506093805 74 0.0 0.0 0.00 0.00 0.00 82 1017.2
20260506085306 74 0.0 0.0 0.00 0.00 0.00 91 1017.3
20260506080805 73 0.0 0.0 0.00 0.00 0.00 98 1017.1
20260506072306 71 0.0 0.0 0.00 0.00 0.00 88 1016.7
20260506042305 62 0.0 0.0 0.00 0.00 0.00 10 1016.3
20260506033805 61 0.0 0.0 0.00 0.00 0.00 10 1016.0
20260506025306 62 0.0 0.0 0.00 0.00 0.00 10 1015.8
20260506020805 62 0.0 0.0 0.00 0.00 0.00 10 1016.0
20260506012308 63 0.0 0.0 0.00 0.00 0.00 10 1016.1
20260506003805 63 0.0 0.0 0.00 0.00 0.00 10 1016.1
20260505235305 64 0.0 0.0 0.00 0.00 0.00 10 1016.3